Regional Weather Roundup
Issued by NWS Newport/Morehead, NC

Current Version | Previous Version | Text Only | Print | Product List | Glossary On
Versions: 1 2 3 4 5 6 7 8 9 10 11 12 13 14 15 16 17 18 19 20 21 22 23 24 25 26 27 28 29 30 31 32 33 34 35 36 37 38 39 40 41 42 43 44 45 46 47 48 49 50
000
ASUS42 KMHX 251625
RWRMHX
WEATHER ROUNDUP FOR EASTERN NORTH CAROLINA
NATIONAL WEATHER SERVICE NEWPORT/MOREHEAD CITY NC
1200 PM EDT MON JUL 25 2016

NOTE: "FAIR" INDICATES FEW OR NO CLOUDS BELOW 12,000 FEET
WITH NO SIGNIFICANT WEATHER AND/OR OBSTRUCTIONS TO VISIBILITY

NCZ015>017-031-032-045>047-102-103-251700-
NORTH COAST

CITY           SKY/WX    TMP DP  RH WIND       PRES   REMARKS
EDENTON        SUNNY     91  77  62 SW5       30.05S HX 104
ELIZABETH CITY MOSUNNY   90  78  68 S8        30.04S HX 104
KITTY HAWK     SUNNY     94  75  53 SW8       30.04S HX 106
MANTEO           N/A     90  77  66 W10       30.05S HX 103

$$

NCZ045>047-081-094-103-104-251700-
CENTRAL COAST

CITY           SKY/WX    TMP DP  RH WIND       PRES   REMARKS
FRISCO         SUNNY     86  78  77 SW8       30.08S

$$

NCZ095-097-098-100-101-251700-
SOUTHERN COAST

CITY           SKY/WX    TMP DP  RH WIND       PRES   REMARKS
BEAUFORT       SUNNY     87  78  74 SW15      30.08R HX 100
CEDAR ISLAND   NOT AVBL
JACKSONVILLE   SUNNY     90  74  59 W6        30.07R
PINEY ISLAND   NOT AVBL
WILMINGTON     MOSUNNY   90  74  59 SW10      30.08R


$$

NCZ011>013-027>030-043-044-078>080-089-090>093-098-251700-
COASTAL PLAIN

CITY           SKY/WX    TMP DP  RH WIND       PRES   REMARKS
AHOSKIE        SUNNY     89  78  69 CALM      30.04S HX 103
CLINTON        MOSUNNY   90  77  65 S5        30.06F HX 103
ELIZABETHTOWN  SUNNY     89  74  60 SW8       30.07F
GOLDSBORO      MOSUNNY   92  79  66 SW8       30.04S HX 108
GREENVILLE     MOSUNNY   91  77  62 SW9       30.06S HX 105
HAVELOCK       MOSUNNY   90  73  57 SW9       30.08S
KENANSVILLE    NOT AVBL
KINSTON        MOSUNNY   91  77  62 SW9       30.06S HX 105
NEW BERN       MOSUNNY   91  74  57 W8        30.08R HX 100
RICHLANDS      MOSUNNY   92  76  59 S7        30.07S HX 104
ROCKY MOUNT    SUNNY     90  78  68 SW8       30.04S HX 104
WASHINGTON     SUNNY     89  77  66 S7        30.05F HX 102
WHITEVILLE     SUNNY     88  73  60 SW6       30.08S

$$

AMZ130-135-150-152-154-156-158-170-250-252-270-ANZ085-086-088-633-658-670-251700-
MARINE OBSERVATIONS

STATION/POSITION TIME  TEMP    WIND        PRES    WAVE   SWELL
                       AIR SEA DIR/SP/G            HT/PER HT/PER
                 (UTC) (F)     (DEG/KT/KT) (MB)    (FT/S) (FT/S)
CHESAPEAKE LIGHT NOT AVBL
64 E VA BEACH    1550   81 81  230/ 14/ 16 1016.8    3/ 5   2/ 9
DUCK             1600   86 60  240/  8/ 12 1016.8
2 E DUCK         1611      73                N/A     1/ 9
OREGON INLET     1600   85 83  190/ 14/ 16 1017.6
13E OREGON INLT  1600      82                N/A     2/ 5   2/ 8
HATTERAS CG      1600   85 83  210/  8/ 11 1018.2
DIAMOND BUOY     1550   84 85  260/  8/  8 1018.7    3/ 5   2/ 5
CAPE LOOKOUT     1600   86     240/  9/ 11 1018.6
BEAUFORT LAB     1600   86 83  210/  8/ 12 1018.2
30 SE NEW RVR IN 1608   84 85  230/ 10/ 14 1019.0
30 SE NEW RVR IN 1525      85                N/A     3/ 4
27 SE WRIGHTSVLE 1608   84 85  220/ 12/ 16 1019.1
5 SE WRIGHTSVLE  1508   84 84  220/ 10/ 14 1019.4
225 S CAPE HAT   1550   83 85  200/  4/  6 1020.2    2/ 8   2/ 8
41 SE CHARLESTON 1550   85 86  220/  6/  8 1018.8    2/ 9   2/ 9

$$




USA.gov is the U.S. government's official web portal to all federal, state and local government web resources and services.